Flag for U.S.A. Weather past 2 weeks in Salt Lake City, Utah, U.S.A.

Now
81 °F

Passing clouds.


Feels Like: 81 °F
Forecast: 70 / 86 °F
Wind: No wind

Location: Salt Lake City International Airport

Current Time: Jul 6, 2015 at 10:30:26 AM

Latest Report: Jul 6, 2015 at 9:53 AM


Visibility: 10 mi

Pressure: 29.94 "Hg (25.79 "Hg at 1312m altitude)

Humidity: 45%

Dew point: 58 °F

Location of Salt Lake CityLocation

Historic Weather in Salt Lake City — Graph

°F

Salt Lake City temperature yesterday

Maximum temperature yesterday: 88 °F (at 4:53 PM)
Minimum temperature yesterday: 69 °F (at 9:53 AM)
Average temperature yesterday: 80 °F

Past Weeks' High & Low Weather Summary

 TemperatureHumidityPressure
High103 °F (Jun 29, 5:53 PM)93% (Jul 5, 9:53 AM)29.98 "Hg (Jul 5, 9:53 AM)
Low66 °F (Jun 22, 5:53 AM)11% (Jun 21, 11:53 AM)29.62 "Hg (Jul 4, 6:53 PM)
Average85 °F30%29.82 "Hg
* Reported Jun 21 8:53 AM — Jul 6 8:53 AM, Salt Lake City, Weather by CustomWeather, © 2015

Note: Actual official high and low records may vary slightly from our data, if they occured in-between our weather recording intervals... More about our weather records

Advertising

Salt Lake City weather history for previous 24 hours

 ConditionsComfort  
Time TempWeatherWind HumidityBarometerVisibility
8:53 AM
Mon, Jul 6
77 °FPassing clouds.3 mph50%29.93 "Hg10 mi
7:53 AM74 °FPassing clouds.6 mph53%29.92 "Hg10 mi
6:53 AM71 °FPassing clouds.6 mph59%29.91 "Hg10 mi
5:53 AM70 °FPassing clouds.8 mph61%29.90 "Hg10 mi
4:53 AM71 °FClear.6 mph61%29.89 "Hg10 mi
3:53 AM69 °FClear.3 mph79%29.89 "Hg10 mi
2:53 AM70 °FClear.No wind79%29.88 "Hg10 mi
1:53 AM71 °FClear.7 mph73%29.88 "Hg10 mi
12:53 AM74 °FClear.No wind64%29.87 "Hg10 mi
11:53 PM
Sun, Jul 5
77 °FClear.5 mph54%29.85 "Hg10 mi
10:53 PM78 °FClear.10 mph64%29.85 "Hg10 mi
9:53 PM79 °FPassing clouds.7 mph54%29.84 "Hg10 mi
8:53 PM83 °FPassing clouds.10 mph44%29.81 "Hg10 mi
7:53 PM86 °FScattered clouds.14 mph39%29.78 "Hg10 mi
6:53 PM88 °FScattered clouds.12 mph36%29.76 "Hg10 mi
5:53 PM88 °FPassing clouds.10 mph35%29.76 "Hg10 mi
4:53 PM88 °FPassing clouds.6 mph35%29.77 "Hg10 mi
3:53 PM87 °FScattered clouds.10 mph36%29.79 "Hg10 mi
2:53 PM84 °FScattered clouds.9 mph43%29.81 "Hg10 mi
1:53 PM83 °FScattered clouds.3 mph44%29.83 "Hg10 mi
12:53 PM79 °FScattered clouds.6 mph54%29.85 "Hg10 mi
11:53 AM76 °FPartly sunny.8 mph64%29.87 "Hg10 mi
10:53 AM75 °FPartly sunny.6 mph71%29.88 "Hg10 mi
Weather by CustomWeather, © 2015

See weather overviewHow to use our weather pages